GW4066 Weather Reports


Display with metric or nautical units.
time (UTC)temp
F
wind
direction
speed
MPH
gust
MPH
rain 1hr
in
rain 24hr
in
rain mn
in
humidity
%
barometer
mb
20260504050004 66 341 11.0 23.0 0.00 0.00 0.00 60 1006.1
20260504045404 67 340 11.0 20.0 0.00 0.00 0.00 59 1005.9
20260504044504 67 340 9.0 19.0 0.00 0.00 0.00 58 1006.0
20260504043604 66 353 9.0 19.0 0.00 0.00 0.00 60 1005.7
20260504042704 66 349 12.0 19.0 0.00 0.00 0.00 59 1005.8
20260504041805 66 351 11.0 22.0 0.00 0.00 0.00 60 1005.7
20260504040904 66 352 11.0 28.0 0.00 0.00 0.00 59 1005.7
20260504040005 66 356 12.0 24.0 0.00 0.00 0.00 58 1005.7
20260504035425 67 345 9.0 18.0 0.00 0.00 0.00 57 1005.8
20260504034504 67 347 10.0 24.0 0.00 0.00 0.00 57 1005.5
20260504033604 67 344 9.0 19.0 0.00 0.00 0.00 57 1005.7
20260504032704 67 351 9.0 19.0 0.00 0.00 0.00 56 1005.7
20260504031804 67 349 11.0 20.0 0.00 0.00 0.00 58 1005.8
20260504030925 67 331 10.0 21.0 0.00 0.00 0.00 58 1005.7
20260504030004 66 333 9.0 18.0 0.00 0.00 0.00 58 1006.2
20260504025425 66 337 8.0 18.0 0.00 0.00 0.00 58 1006.1
20260504024505 65 339 10.0 21.0 0.00 0.00 0.00 58 1006.3
20260504023604 65 337 10.0 18.0 0.00 0.00 0.00 58 1006.4
20260504022704 65 342 10.0 24.0 0.00 0.00 0.00 58 1006.4
20260504021804 66 337 9.0 21.0 0.00 0.00 0.00 57 1006.6
20260504020925 66 335 11.0 21.0 0.00 0.00 0.00 56 1006.8
20260504020004 66 339 9.0 23.0 0.00 0.00 0.00 57 1006.6
20260504015425 66 345 10.0 22.0 0.00 0.00 0.00 59 1006.7
20260504014504 65 345 10.0 19.0 0.00 0.00 0.00 58 1006.9
20260504013604 65 344 10.0 21.0 0.00 0.00 0.00 60 1007.2
20260504012726 64 343 10.0 20.0 0.00 0.00 0.00 61 1007.2
20260504011804 64 347 11.0 22.0 0.00 0.01 0.00 62 1007.2
20260504010904 64 349 11.0 20.0 0.00 0.01 0.00 62 1007.2
20260504010004 63 349 11.0 20.0 0.00 0.01 0.00 63 1007.3
20260504005404 63 342 12.0 20.0 0.00 0.01 0.00 63 1007.2
20260504004505 63 346 10.0 22.0 0.00 0.01 0.00 64 1007.3
20260504003604 62 342 10.0 22.0 0.00 0.01 0.00 64 1007.3
20260504002704 62 341 10.0 22.0 0.00 0.01 0.00 65 1007.4
20260504001804 62 336 10.0 24.0 0.00 0.02 0.00 66 1007.5
20260504000904 61 334 11.0 23.0 0.00 0.02 0.00 66 1007.4
20260504000005 61 345 11.0 21.0 0.00 0.02 0.00 67 1007.4
20260503235404 61 339 9.0 18.0 0.00 0.02 0.00 66 1007.6
20260503234504 61 332 9.0 22.0 0.00 0.02 0.00 67 1007.6
20260503233604 61 335 7.0 17.0 0.00 0.03 0.00 68 1007.7
20260503232725 61 326 9.0 18.0 0.00 0.05 0.00 69 1007.7
20260503231805 60 346 7.0 16.0 0.00 0.05 0.00 71 1007.9
20260503230926 59 1 7.0 16.0 0.00 0.05 0.00 72 1007.8
20260503230006 59 6 7.0 14.0 0.00 0.05 0.00 73 1008.0
20260503225404 59 4 7.0 16.0 0.00 0.05 0.00 73 1007.9
20260503224525 58 359 8.0 14.0 0.00 0.05 0.00 74 1007.9
20260503223604 58 358 6.0 12.0 0.00 0.05 0.00 74 1008.0
20260503222704 57 359 5.0 12.0 0.00 0.05 0.00 76 1008.0
20260503221804 56 359 5.0 12.0 0.00 0.05 0.00 77 1008.0
20260503220925 55 359 5.0 11.0 0.00 0.05 0.00 79 1008.1
20260503220005 55 3 5.0 11.0 0.00 0.05 0.00 80 1008.1
20260503215405 54 5 4.0 9.0 0.00 0.05 0.00 81 1007.9
20260503214504 54 10 4.0 9.0 0.00 0.05 0.00 82 1008.0
20260503213604 53 3 3.0 8.0 0.00 0.05 0.00 83 1008.0
20260503212704 53 9 3.0 8.0 0.00 0.05 0.00 83 1007.9
20260503211825 54 11 3.0 7.0 0.00 0.05 0.00 83 1007.8
20260503210905 54 8 4.0 8.0 0.00 0.05 0.00 83 1007.8
20260503210005 54 7 5.0 10.0 0.00 0.05 0.00 83 1007.8
20260503205426 54 8 5.0 10.0 0.00 0.05 0.00 83 1007.5
20260503204504 54 3 5.0 11.0 0.00 0.05 0.00 83 1007.5
20260503203604 54 4 4.0 11.0 0.00 0.05 0.00 83 1007.6
20260503202704 54 7 5.0 11.0 0.00 0.05 0.00 83 1007.4
20260503201804 54 11 5.0 12.0 0.00 0.05 0.00 82 1007.5
20260503200925 54 360 4.0 9.0 0.00 0.05 0.00 82 1007.5
20260503200004 54 4 4.0 8.0 0.00 0.05 0.00 82 1007.5
20260503195404 54 8 3.0 9.0 0.00 0.05 0.00 82 1007.5
20260503194504 54 3 5.0 11.0 0.00 0.05 0.00 82 1007.5
20260503193605 54 4 6.0 12.0 0.00 0.05 0.00 82 1007.5
20260503192704 54 3 5.0 10.0 0.00 0.05 0.00 82 1007.6
20260503191804 54 9 3.0 8.0 0.00 0.05 0.00 82 1007.6
20260503190904 54 20 3.0 8.0 0.00 0.05 0.00 82 1007.8
20260503190026 54 17 4.0 9.0 0.00 0.05 0.00 82 1007.8
20260503185425 54 14 5.0 10.0 0.00 0.05 0.00 82 1007.7
20260503184525 54 13 6.0 14.0 0.00 0.05 0.00 82 1007.8
20260503183625 54 16 6.0 11.0 0.00 0.05 0.00 83 1007.7
20260503182725 54 22 5.0 9.0 0.00 0.05 0.00 83 1007.9
20260503181825 54 22 5.0 10.0 0.00 0.05 0.00 84 1007.8
20260503180904 54 21 6.0 10.0 0.00 0.05 0.00 84 1007.9
20260503180005 54 19 7.0 14.0 0.00 0.05 0.00 84 1008.0
20260503175404 54 17 7.0 14.0 0.00 0.05 0.00 84 1008.0
20260503174504 54 16 6.0 12.0 0.00 0.05 0.00 85 1008.1
20260503173604 54 16 5.0 12.0 0.00 0.05 0.00 85 1008.2
20260503172705 54 19 5.0 12.0 0.00 0.05 0.00 85 1008.3
20260503171804 54 12 5.0 9.0 0.00 0.05 0.00 85 1008.5
20260503170926 54 16 5.0 10.0 0.00 0.05 0.00 85 1008.6
20260503150904 55 13 3.0 9.0 0.00 0.05 0.00 83 1008.9
20260503130904 57 17 2.0 5.0 0.00 0.05 0.05 81 1009.3
20260503080904 62 2 2.0 5.0 0.00 0.05 0.05 67 1008.2
20260503072705 64 342 2.0 6.0 0.00 0.05 0.05 62 1008.1
20260503071825 64 328 2.0 8.0 0.00 0.05 0.05 62 1008.0
20260503070905 65 317 3.0 9.0 0.00 0.05 0.05 61 1007.8
20260503054505 70 293 5.0 15.0 0.00 0.05 0.05 49 1007.7
20260503053604 70 312 4.0 15.0 0.00 0.05 0.05 46 1007.6
20260503052705 70 305 4.0 12.0 0.00 0.05 0.05 48 1007.4